Weather History for KVWU - April, 2013

Change the Weather History Date:

Saturday, April 20, 2013

  Actual Average (KBDE) Record (KBDE)
Temperature  
Mean Temperature 22 °F -  
Max Temperature 35 °F 56 °F 84 °F (1987)
Min Temperature 8 °F 32 °F 14 °F (1945)
Degree Days  
Heating Degree Days 44    
Moisture  
Dew Point 12 °F    
Average Humidity 59    
Maximum Humidity 92    
Minimum Humidity 35    
Precipitation  
Precipitation 0.00 in - - ()
Sea Level Pressure  
Sea Level Pressure 30.17 in    
Wind  
Wind Speed 2 mph (West)    
Max Wind Speed 8 mph    
Max Gust Speed -    
Visibility 10 miles    
Events      
Averages and records for this station are not official NWS values.
T = Trace of Precipitation, MM = Missing Value Source: NWS Daily Summary

Daily Weather History Graph

Daily Weather History Graph

Search for Another Location

Airport or City:

Trip Planner

Search our weather history database for the weather conditions in past years. The results will help you decide how hot, cold, wet, or windy it might be!

Date:

Astronomy

Apr. 20, 2013 Rise Set
Actual Time 6:18 AM CDT 8:16 PM CDT
Civil Twilight 5:45 AM CDT 8:49 PM CDT
Nautical Twilight 5:03 AM CDT 9:31 PM CDT
Astronomical Twilight 4:18 AM CDT 10:17 PM CDT
Moon 2:37 PM CDT (4/20) 3:33 AM CDT (4/20)
Length of Visible Light 15h 04m
Length of Day
13h 57m
Waxing Gibbous, 71% of the Moon is Illuminated
Apr 20
Waxing Gibbous
Apr 25
Full
May 2
Last Quarter
May 9
New
May 17
First Quarter

Hourly Weather History & Observations

Time (CDT) Temp. Windchill Dew Point Humidity Pressure Visibility Wind Dir Wind Speed Gust Speed Precip Events Conditions
2:59 AM 15.8 °F 10.2 °F 10.4 °F 79% 30.05 in 10.0 mi WNW 3.5 mph - N/A   Clear
3:14 AM 15.8 °F 10.2 °F 10.4 °F 79% 30.05 in 10.0 mi WNW 3.5 mph - N/A   Clear
3:35 AM 15.8 °F - 10.4 °F 79% 30.05 in 10.0 mi Calm Calm - N/A   Clear
3:55 AM 14.0 °F - 10.4 °F 86% 30.06 in 10.0 mi Calm Calm - N/A   Clear
4:14 AM 14.0 °F - 10.4 °F 86% 30.07 in 10.0 mi Calm Calm - N/A   Clear
4:35 AM 12.2 °F - 8.6 °F 85% 30.07 in 10.0 mi Calm Calm - N/A   Clear
4:55 AM 10.4 °F - 8.6 °F 92% 30.08 in 10.0 mi Calm Calm - N/A   Clear
5:15 AM 10.4 °F - 8.6 °F 92% 30.09 in 10.0 mi Calm Calm - N/A   Clear
5:35 AM 10.4 °F - 8.6 °F 92% 30.09 in 10.0 mi Calm Calm - N/A   Clear
5:55 AM 8.6 °F - 6.8 °F 92% 30.10 in 10.0 mi Calm Calm - N/A   Clear
6:14 AM 8.6 °F - 6.8 °F 92% 30.11 in 10.0 mi Calm Calm - N/A   Clear
6:35 AM 8.6 °F - 6.8 °F 92% 30.12 in 10.0 mi Calm Calm - N/A   Clear
7:14 AM 12.2 °F - 10.4 °F 92% 30.14 in 10.0 mi Calm Calm - N/A   Clear
7:35 AM 14.0 °F - 10.4 °F 86% 30.15 in 10.0 mi Calm Calm - N/A   Clear
7:55 AM 15.8 °F - 10.4 °F 79% 30.16 in 10.0 mi Calm Calm - N/A   Clear
8:14 AM 17.6 °F - 12.2 °F 79% 30.16 in 10.0 mi Calm Calm - N/A   Clear
8:35 AM 21.2 °F - 10.4 °F 63% 30.17 in 10.0 mi Calm Calm - N/A   Clear
8:55 AM 24.8 °F - 10.4 °F 54% 30.18 in 10.0 mi Calm Calm - N/A   Clear
9:14 AM 26.6 °F - 10.4 °F 51% 30.18 in 10.0 mi Calm Calm - N/A   Clear
9:35 AM 28.4 °F - 8.6 °F 43% 30.19 in 10.0 mi Calm Calm - N/A   Clear
9:55 AM 26.6 °F 22.6 °F 14.0 °F 59% 30.19 in 10.0 mi West 3.5 mph - N/A   Clear
10:14 AM 26.6 °F - 15.8 °F 64% 30.20 in 10.0 mi Calm Calm - N/A   Clear
10:35 AM 28.4 °F 24.6 °F 14.0 °F 55% 30.20 in 10.0 mi West 3.5 mph - N/A   Clear
10:55 AM 30.2 °F 26.7 °F 8.6 °F 40% 30.20 in 10.0 mi West 3.5 mph - N/A   Clear
11:14 AM 30.2 °F 24.3 °F 8.6 °F 40% 30.20 in 10.0 mi West 5.8 mph - N/A   Clear
11:55 AM 30.2 °F 23.4 °F 8.6 °F 40% 30.20 in 10.0 mi West 6.9 mph - N/A   Clear
12:14 PM 30.2 °F 24.3 °F 10.4 °F 44% 30.20 in 10.0 mi WSW 5.8 mph - N/A   Clear
12:35 PM 32.0 °F 25.6 °F 10.4 °F 41% 30.20 in 10.0 mi WSW 6.9 mph - N/A   Clear
12:55 PM 32.0 °F 24.8 °F 10.4 °F 41% 30.20 in 10.0 mi WSW 8.1 mph - N/A   Clear
1:14 PM 32.0 °F 24.8 °F 12.2 °F 44% 30.20 in 10.0 mi West 8.1 mph - N/A   Clear
1:35 PM 32.0 °F 24.8 °F 10.4 °F 41% 30.20 in 10.0 mi West 8.1 mph - N/A   Clear
1:55 PM 33.8 °F 28.6 °F 8.6 °F 35% 30.20 in 10.0 mi WNW 5.8 mph - N/A   Clear
2:14 PM 33.8 °F 27.7 °F 10.4 °F 38% 30.20 in 10.0 mi WNW 6.9 mph - N/A   Clear
2:35 PM 33.8 °F 27.7 °F 10.4 °F 38% 30.20 in 10.0 mi West 6.9 mph - N/A   Clear
2:55 PM 33.8 °F 27.7 °F 10.4 °F 38% 30.20 in 10.0 mi WNW 6.9 mph - N/A   Clear
3:14 PM 33.8 °F 27.7 °F 12.2 °F 41% 30.20 in 10.0 mi WNW 6.9 mph - N/A   Clear
3:35 PM 33.8 °F 27.0 °F 15.8 °F 48% 30.19 in 10.0 mi West 8.1 mph - N/A   Clear
3:55 PM 33.8 °F 27.0 °F 15.8 °F 48% 30.20 in 10.0 mi West 8.1 mph - N/A   Clear
4:14 PM 33.8 °F 27.0 °F 15.8 °F 48% 30.19 in 10.0 mi WNW 8.1 mph - N/A   Clear
4:55 PM 35.6 °F 29.9 °F 12.2 °F 38% 30.19 in 10.0 mi West 6.9 mph - N/A   Clear
5:14 PM 35.6 °F 29.2 °F 12.2 °F 38% 30.19 in 10.0 mi West 8.1 mph - N/A   Clear
5:35 PM 35.6 °F 29.9 °F 12.2 °F 38% 30.19 in 10.0 mi West 6.9 mph - N/A   Clear
5:54 PM 35.6 °F 30.7 °F 12.2 °F 38% 30.18 in 10.0 mi WNW 5.8 mph - N/A   Clear
6:15 PM 35.6 °F 31.7 °F 12.2 °F 38% 30.18 in 10.0 mi WNW 4.6 mph - N/A   Clear
6:35 PM 33.8 °F 30.8 °F 15.8 °F 48% 30.18 in 10.0 mi WNW 3.5 mph - N/A   Clear
7:15 PM 35.6 °F - 12.2 °F 38% 30.18 in 10.0 mi Calm Calm - N/A   Clear
7:35 PM 33.8 °F - 12.2 °F 41% 30.18 in 10.0 mi Calm Calm - N/A   Clear
7:54 PM 33.8 °F - 12.2 °F 41% 30.18 in 10.0 mi Calm Calm - N/A   Clear
8:15 PM 32.0 °F - 12.2 °F 44% 30.18 in 10.0 mi Calm Calm - N/A   Clear
8:35 PM 30.2 °F - 14.0 °F 51% 30.19 in 10.0 mi Calm Calm - N/A   Clear
8:54 PM 28.4 °F 24.6 °F 15.8 °F 59% 30.19 in 10.0 mi SE 3.5 mph - N/A   Clear
9:15 PM 32.0 °F 28.7 °F 10.4 °F 41% 30.20 in 10.0 mi South 3.5 mph - N/A   Clear
9:35 PM 30.2 °F 26.7 °F 12.2 °F 47% 30.20 in 10.0 mi SSW 3.5 mph - N/A   Clear
9:54 PM 28.4 °F - 12.2 °F 51% 30.21 in 10.0 mi Calm Calm - N/A   Clear
10:15 PM 26.6 °F - 14.0 °F 59% 30.21 in 10.0 mi Calm Calm - N/A   Clear
10:35 PM 24.8 °F - 14.0 °F 64% 30.21 in 10.0 mi Calm Calm - N/A   Clear
10:54 PM 21.2 °F - 14.0 °F 74% 30.21 in 10.0 mi Calm Calm - N/A   Clear
11:15 PM 23.0 °F - 15.8 °F 74% 30.21 in 10.0 mi Calm Calm - N/A   Clear
11:35 PM 21.2 °F - 15.8 °F 80% 30.21 in 10.0 mi Calm Calm - N/A   Clear
11:54 PM 23.0 °F 18.4 °F 15.8 °F 74% 30.21 in 10.0 mi SSE 3.5 mph - N/A   Clear